TimeCDT,TemperatureF,Dew PointF,Humidity,Sea Level PressureIn,VisibilityMPH,Wind Direction,Wind SpeedMPH,Gust SpeedMPH,PrecipitationIn,Events,Conditions,WindDirDegrees,DateUTC
12:53 AM,70.0,64.0,81,30.01,10.0,SSE,5.8,-,N/A,,Clear,160,2013-08-20 05:53:00
1:53 AM,69.1,64.0,84,30.01,10.0,South,5.8,-,N/A,,Clear,170,2013-08-20 06:53:00
2:53 AM,69.1,64.0,84,29.99,10.0,South,6.9,-,N/A,,Clear,170,2013-08-20 07:53:00
3:53 AM,69.1,64.0,84,29.99,10.0,SSE,4.6,-,N/A,,Clear,160,2013-08-20 08:53:00
4:53 AM,69.1,64.0,84,29.98,10.0,South,5.8,-,N/A,,Clear,180,2013-08-20 09:53:00
5:53 AM,68.0,64.0,87,29.99,10.0,South,6.9,-,N/A,,Clear,180,2013-08-20 10:53:00
6:53 AM,68.0,63.0,84,30.01,10.0,South,6.9,-,N/A,,Clear,180,2013-08-20 11:53:00
7:53 AM,70.0,64.0,81,30.03,10.0,South,4.6,-,N/A,,Clear,170,2013-08-20 12:53:00
8:53 AM,73.0,64.9,76,30.04,10.0,South,9.2,-,N/A,,Clear,180,2013-08-20 13:53:00
9:53 AM,77.0,64.9,66,30.04,10.0,South,15.0,-,N/A,,Mostly Cloudy,190,2013-08-20 14:53:00
10:53 AM,81.0,64.9,58,30.03,10.0,SSW,15.0,24.2,N/A,,Clear,200,2013-08-20 15:53:00
11:53 AM,82.9,64.0,53,30.03,10.0,SSW,15.0,-,N/A,,Clear,210,2013-08-20 16:53:00
12:53 PM,84.9,66.0,53,30.01,10.0,South,13.8,20.7,N/A,,Clear,190,2013-08-20 17:53:00
1:53 PM,86.0,64.9,49,30.00,10.0,South,13.8,-,N/A,,Clear,190,2013-08-20 18:53:00
2:53 PM,87.1,64.0,46,29.99,10.0,SSW,11.5,-,N/A,,Clear,200,2013-08-20 19:53:00
3:53 PM,88.0,64.9,46,29.97,10.0,SSW,9.2,-,N/A,,Clear,200,2013-08-20 20:53:00
4:53 PM,88.0,64.9,46,29.96,10.0,South,13.8,-,N/A,,Clear,170,2013-08-20 21:53:00
5:53 PM,87.1,64.9,48,29.96,10.0,South,9.2,-,N/A,,Clear,180,2013-08-20 22:53:00
6:53 PM,84.9,66.9,55,29.96,10.0,SSE,6.9,-,N/A,,Clear,160,2013-08-20 23:53:00
7:53 PM,80.1,66.9,64,29.96,10.0,SSE,5.8,-,N/A,,Clear,160,2013-08-21 00:53:00
8:53 PM,77.0,66.0,69,29.97,10.0,SSE,8.1,-,N/A,,Clear,150,2013-08-21 01:53:00
9:53 PM,73.9,66.9,79,30.00,10.0,SSE,6.9,-,N/A,,Clear,150,2013-08-21 02:53:00
10:53 PM,73.9,66.0,76,30.01,10.0,SSE,6.9,-,N/A,,Clear,160,2013-08-21 03:53:00
11:53 PM,73.0,66.0,79,30.01,10.0,SSE,5.8,-,N/A,,Clear,160,2013-08-21 04:53:00